Regional Weather Roundup
Issued by NWS

Home | Current Version | Previous Version | Graphics & Text | Print | Product List | Glossary On
Versions: 1 2 3 4 5 6 7 8 9 10 11 12 13 14 15 16 17 18 19 20 21 22 23 24 25 26 27 28 29 30 31 32 33 34 35 36 37 38 39 40 41 42 43 44 45 46 47 48 49 50
000
ASUS45 KCYS 312310
RWRWY

WYOMING REGIONAL WEATHER ROUNDUP
NATIONAL WEATHER SERVICE CHEYENNE WY
400 PM MST SAT JAN 31 2015

NOTE:  "FAIR" INDICATES FEW OR NO CLOUDS BELOW 12,000 FEET
WITH NO SIGNIFICANT WEATHER AND/OR OBSTRUCTIONS TO VISIBILITY.

WYZ001-010000-
YELLOWSTONE NATIONAL PARK

CITY           SKY/WX    TMP DP  RH WIND       PRES   REMARKS
LK YELLOWSTONE   N/A     29   7  39 NW12G24   29.97R WCI  19
W YELLOWSTONE  NOT AVBL

$$
WYZ002>013-054>058-071-098>099-010000-
NORTHERN WYOMING

CITY           SKY/WX    TMP DP  RH WIND       PRES   REMARKS
JACKSON        SUNNY     25  18  74 CALM      29.99S
CODY           CLOUDY    28  23  80 N22       29.99R WCI  15
GREYBULL       PTSUNNY   28  28 100 SE5       29.96R FOG     WCI  23
WORLAND        FAIR      30  26  85 CALM      29.95R
SHERIDAN       FLURRIES  28  21  75 NW24G30   30.06R WCI  14
BUFFALO        CLOUDY    25  20  81 N37G45    29.95R HAZE    WCI   7
GILLETTE       LGT SNOW  31  26  82 N22G28    29.93R WCI  18
HULETT           N/A    N/A N/A N/A MISG        N/A
NEWCASTLE      CLOUDY    36  21  55 SW6       29.89R WCI  31

$$
WYZ014>020-022>026-101>103-010000-
CENTRAL WYOMING

CITY           SKY/WX    TMP DP  RH WIND       PRES   REMARKS
BIG PINEY      FAIR      38  12  34 N17       29.95R WCI  28
PINEDALE       FAIR      32  14  47 W17       29.94R WCI  21
DUBOIS         FAIR      34   0  23 NW21G36   29.88R WCI  22
LANDER         FAIR      40  16  37 E3        29.86R
RIVERTON       FAIR      40  17  39 NE6       29.89R
CASPER         FAIR      39  19  44 N13       29.88R WCI  31
DOUGLAS        FAIR      42  18  37 N14       29.84R

$$
WYZ021-027>030-104>119-010000-
SOUTHERN WYOMING

CITY           SKY/WX    TMP DP  RH WIND       PRES   REMARKS
EVANSTON       FAIR      40  25  55 W13       30.00R WCI  32
KEMMERER       FAIR      36  21  55 W13       29.98R WCI  27
FORT BRIDGER   FAIR      40  21  45 NW13G18   30.01S WCI  33
ROCK SPRINGS   FAIR      40  25  55 W20       29.89F WCI  30
DIXON          CLOUDY    39  27  63 SW3       29.92S
RAWLINS        PTSUNNY   39  24  55 W13       29.85S WCI  31
SARATOGA       MOCLDY    37  28  70 W15G23    29.86S WCI  28
LARAMIE        FAIR      37  24  59 NW22G33   29.80R WCI  26
CHEYENNE       LGT SNOW  34  28  79 NE7       29.79R WCI  28
TORRINGTON     CLOUDY    39  25  57 N8        29.83F WCI  33
PINE BLUFFS    LGT SNOW  32  32 100 N12       29.82R WCI  23

$$



USA.gov is the U.S. government's official web portal to all federal, state and local government web resources and services.